Weather History for Chillicothe, MO

Change the Weather History Date:

Monday, July 8, 2013

  Actual Average (KIRK) Record (KIRK)
Temperature  
Mean Temperature 84 °F 75 °F  
Max Temperature 91 °F 85 °F 101 °F (1936)
Min Temperature 77 °F 64 °F 54 °F (1958)
Degree Days  
Heating Degree Days 0 0  
Month to date heating degree days 0  
Since 1 June heating degree days 16  
Since 1 July heating degree days 0  
Cooling Degree Days 19 10  
Month to date cooling degree days 74  
Year to date cooling degree days 328  
Since 1 June cooling degree days 266  
Growing Degree Days 34 (Base 50)    
Moisture  
Dew Point 68 °F    
Average Humidity 61    
Maximum Humidity 69    
Minimum Humidity 50    
Precipitation  
Precipitation 0.00 in 0.15 in 1.64 in (1993)
Month to date precipitation 1.05  
Year to date precipitation 19.98  
Sea Level Pressure  
Sea Level Pressure 29.97 in    
Wind  
Wind Speed 6 mph (South)    
Max Wind Speed 13 mph    
Max Gust Speed 18 mph    
T = Trace of Precipitation, MM = Missing Value Source: NWS Daily Summary

Daily Weather History Graph

Daily Weather History Graph

Search for Another Location

Airport:

Trip Planner

Search our weather history database for the weather conditions in past years. The results will help you decide how hot, cold, wet, or windy it might be!

Date:

Astronomy

Jul. 08, 2013 Rise Set
Actual Time 5:53 AM CDT 8:44 PM CDT
Civil Twilight 5:21 AM CDT 9:16 PM CDT
Nautical Twilight 4:41 AM CDT 9:57 PM CDT
Astronomical Twilight 3:54 AM CDT 10:43 PM CDT
Moon 6:23 AM CDT (7/8) 8:47 PM CDT (7/8)
Length of Visible Light 15h 55m
Length of Day
14h 50m
New Moon, 0% of the Moon is Illuminated
Jul 8
New Moon
Jul 15
First Quarter
Jul 22
Full
Jul 29
Last Quarter
Aug 6
New

Hourly Weather History & Observations

Time (CDT) Temp. Heat Index Dew Point Humidity Pressure Visibility Wind Dir Wind Speed Gust Speed Precip Events Conditions
12:52 AM 80.1 °F 81.7 °F 64.0 °F 58% 29.95 in - South 5.8 mph - N/A   Unknown
1:52 AM 80.1 °F 81.5 °F 63.0 °F 56% 29.94 in - South 5.8 mph - N/A   Unknown
2:52 AM 79.0 °F - 63.0 °F 58% 29.94 in - South 6.9 mph - N/A   Unknown
3:52 AM 77.0 °F - 63.0 °F 62% 29.94 in - South 5.8 mph - N/A   Unknown
4:52 AM 77.0 °F - 63.0 °F 62% 29.95 in - South 6.9 mph - N/A   Unknown
5:52 AM 77.0 °F - 63.0 °F 62% 29.95 in - South 6.9 mph - N/A   Unknown
6:52 AM 77.0 °F - 64.0 °F 64% 29.97 in - Calm Calm - N/A   Unknown
7:52 AM 77.0 °F - 66.0 °F 69% 29.98 in - South 3.5 mph - N/A   Unknown
8:52 AM 78.1 °F - 66.0 °F 66% 29.99 in - South 4.6 mph - N/A   Unknown
9:52 AM 78.1 °F - 66.9 °F 68% 30.00 in - SSE 4.6 mph - N/A   Unknown
10:52 AM 79.0 °F - 68.0 °F 69% 30.01 in - South 5.8 mph - N/A   Unknown
11:52 AM 82.9 °F 86.5 °F 69.1 °F 63% 30.01 in - South 6.9 mph - N/A   Unknown
12:52 PM 84.9 °F 88.8 °F 69.1 °F 59% 30.00 in - SSW 9.2 mph - N/A   Unknown
1:52 PM 86.0 °F 90.1 °F 69.1 °F 57% 29.99 in - SSW 8.1 mph - N/A   Unknown
2:52 PM 89.1 °F 92.9 °F 68.0 °F 50% 29.97 in - SSW 12.7 mph 18.4 mph N/A   Unknown
3:52 PM 88.0 °F 92.9 °F 70.0 °F 55% 29.97 in - Variable 4.6 mph - N/A   Unknown
4:52 PM 91.0 °F 96.6 °F 70.0 °F 50% 29.96 in - SSW 6.9 mph - N/A   Unknown
5:52 PM 89.1 °F 96.0 °F 72.0 °F 57% 29.96 in - SSE 3.5 mph - N/A   Unknown
6:52 PM 88.0 °F 93.8 °F 71.1 °F 57% 29.95 in - South 3.5 mph - N/A   Unknown
7:52 PM 87.1 °F 93.6 °F 72.0 °F 61% 29.95 in - South 4.6 mph - N/A   Unknown
8:52 PM 84.0 °F 89.6 °F 72.0 °F 67% 29.95 in - SSE 3.5 mph - N/A   Unknown
9:52 PM 84.0 °F 89.6 °F 72.0 °F 67% 29.96 in - South 4.6 mph - N/A   Unknown
10:52 PM 84.0 °F 88.4 °F 70.0 °F 63% 29.97 in - South 6.9 mph - N/A   Unknown
11:52 PM 84.0 °F 87.8 °F 69.1 °F 61% 29.95 in - South 6.9 mph - N/A   Unknown